• In Russia
  • List of Countries
  • For 7 days
  • Water Temperature
  • Weather Map
  • Weather Widgets
  • user-avatar
    Login

    Hourly Weather Kapan

    Today, 23 September, Monday

    Time Temperature Precipitation Wind Pressure Humidity
    00:00 +11°C° 0 mm 1 mps 685 mmHg 68%
    01:00 +11°C° 0 mm 1 mps 685 mmHg 68%
    02:00 +11°C° 0 mm 1 mps 685 mmHg 68%
    03:00 +11°C° 0 mm 1 mps 685 mmHg 69%
    04:00 +11°C° 0 mm 1 mps 685 mmHg 68%
    05:00 +11°C° 0 mm 1 mps 685 mmHg 68%
    06:00 +11°C° 0 mm 1 mps 685 mmHg 68%
    07:00 +13°C° 0 mm 1 mps 686 mmHg 60%
    08:00 +15°C° 0 mm 1 mps 686 mmHg 52%
    09:00 +18°C° 0 mm 2 mps 687 mmHg 43%
    10:00 +19°C° 0 mm 2 mps 686 mmHg 40%
    11:00 +20°C° 0 mm 2 mps 686 mmHg 38%
    12:00 +21°C° 0 mm 3 mps 686 mmHg 35%
    13:00 +21°C° 0 mm 3 mps 685 mmHg 35%
    14:00 +22°C° 0 mm 3 mps 684 mmHg 35%
    15:00 +23°C° 0 mm 2 mps 684 mmHg 34%
    16:00 +20°C° 0 mm 2 mps 683 mmHg 40%
    17:00 +18°C° 0 mm 2 mps 683 mmHg 46%
    18:00 +16°C° 0 mm 1 mps 683 mmHg 51%
    19:00 +15°C° 0 mm 1 mps 683 mmHg 52%
    20:00 +15°C° 0 mm 1 mps 683 mmHg 53%
    21:00 +14°C° 0 mm 1 mps 684 mmHg 54%
    22:00 +14°C° 0 mm 1 mps 683 mmHg 55%
    23:00 +14°C° 0 mm 1 mps 683 mmHg 56%

    Tomorrow, 24 September, Tuesday

    Time Temperature Precipitation Wind Pressure Humidity
    00:00 +13°C° 0 mm 1 mps 683 mmHg 57%
    01:00 +13°C° 0 mm 1 mps 683 mmHg 57%
    02:00 +13°C° 0 mm 1 mps 683 mmHg 58%
    03:00 +13°C° 0 mm 1 mps 684 mmHg 59%
    04:00 +13°C° 0 mm 1 mps 684 mmHg 59%
    05:00 +12°C° 0 mm 1 mps 684 mmHg 60%
    06:00 +12°C° 0 mm 1 mps 684 mmHg 61%
    07:00 +15°C° 0 mm 1 mps 684 mmHg 55%
    08:00 +18°C° 0 mm 1 mps 685 mmHg 48%
    09:00 +19°C° 0 mm 2 mps 686 mmHg 42%
    10:00 +20°C° 0 mm 2 mps 685 mmHg 40%
    11:00 +21°C° 0 mm 2 mps 685 mmHg 38%
    12:00 +24°C° 0 mm 3 mps 685 mmHg 35%
    13:00 +24°C° 0 mm 3 mps 685 mmHg 36%
    14:00 +24°C° 0 mm 3 mps 684 mmHg 36%
    15:00 +24°C° 0 mm 3 mps 684 mmHg 37%
    16:00 +21°C° 0 mm 2 mps 683 mmHg 46%
    17:00 +19°C° 0 mm 2 mps 683 mmHg 55%
    18:00 +18°C° 0 mm 1 mps 682 mmHg 64%
    19:00 +18°C° 0 mm 1 mps 682 mmHg 66%
    20:00 +16°C° 0 mm 1 mps 683 mmHg 68%
    21:00 +16°C° 0 mm 1 mps 683 mmHg 70%
    22:00 +15°C° 0 mm 0 mps 683 mmHg 70%
    23:00 +15°C° 0 mm 0 mps 683 mmHg 70%

    Day after tomorrow, 25 September, Wednesday

    Time Temperature Precipitation Wind Pressure Humidity
    00:00 +15°C° 0 mm 0 mps 683 mmHg 70%
    01:00 +15°C° 0 mm 1 mps 682 mmHg 69%
    02:00 +15°C° 0 mm 1 mps 682 mmHg 68%
    03:00 +15°C° 0 mm 1 mps 682 mmHg 67%
    04:00 +15°C° 0 mm 1 mps 682 mmHg 65%
    05:00 +15°C° 0 mm 1 mps 682 mmHg 64%
    06:00 +14°C° 0 mm 1 mps 683 mmHg 63%
    07:00 +18°C° 0 mm 1 mps 683 mmHg 56%
    08:00 +20°C° 0 mm 1 mps 684 mmHg 50%
    09:00 +23°C° 0 mm 1 mps 685 mmHg 43%
    10:00 +24°C° 0 mm 2 mps 684 mmHg 40%
    11:00 +25°C° 0 mm 2 mps 684 mmHg 37%
    12:00 +26°C° 0 mm 3 mps 684 mmHg 34%
    13:00 +27°C° 0 mm 3 mps 684 mmHg 34%
    14:00 +27°C° 0 mm 3 mps 684 mmHg 34%
    15:00 +27°C° 0 mm 3 mps 684 mmHg 34%
    16:00 +25°C° 0 mm 2 mps 683 mmHg 42%
    17:00 +23°C° 0 mm 1 mps 683 mmHg 51%
    18:00 +21°C° 0 mm 1 mps 682 mmHg 59%
    19:00 +20°C° 0 mm 1 mps 683 mmHg 59%
    20:00 +20°C° 0 mm 1 mps 683 mmHg 59%
    21:00 +19°C° 0 mm 1 mps 683 mmHg 59%
    22:00 +19°C° 0 mm 1 mps 683 mmHg 60%
    23:00 +18°C° 0 mm 1 mps 683 mmHg 61%

    26 September, Thursday

    Time Temperature Precipitation Wind Pressure Humidity
    00:00 +18°C° 0 mm 1 mps 683 mmHg 62%
    01:00 +18°C° 0 mm 1 mps 683 mmHg 61%
    02:00 +16°C° 0 mm 1 mps 683 mmHg 60%
    03:00 +16°C° 0 mm 1 mps 684 mmHg 60%
    04:00 +16°C° 0 mm 1 mps 684 mmHg 61%
    05:00 +16°C° 0 mm 1 mps 684 mmHg 62%
    06:00 +15°C° 0 mm 1 mps 684 mmHg 63%
    07:00 +19°C° 0 mm 1 mps 684 mmHg 58%
    08:00 +21°C° 0 mm 1 mps 685 mmHg 52%
    09:00 +23°C° 0 mm 2 mps 686 mmHg 46%
    10:00 +25°C° 0 mm 2 mps 685 mmHg 42%
    11:00 +26°C° 0 mm 3 mps 685 mmHg 38%
    12:00 +28°C° 0 mm 3 mps 685 mmHg 34%
    13:00 +28°C° 0 mm 3 mps 685 mmHg 34%
    14:00 +28°C° 0 mm 3 mps 684 mmHg 34%
    15:00 +28°C° 0 mm 3 mps 683 mmHg 34%
    16:00 +26°C° 0 mm 2 mps 683 mmHg 43%
    17:00 +23°C° 0 mm 2 mps 682 mmHg 53%
    18:00 +21°C° 0 mm 1 mps 682 mmHg 62%
    19:00 +21°C° 0 mm 1 mps 682 mmHg 64%
    20:00 +20°C° 0 mm 1 mps 683 mmHg 65%
    21:00 +17°C° 0 mm 0 mps 683 mmHg 67%
    22:00 +17°C° 0 mm 0 mps 683 mmHg 68%
    23:00 +17°C° 0 mm 0 mps 683 mmHg 69%

    27 September, Friday

    Time Temperature Precipitation Wind Pressure Humidity
    00:00 +18°C° 0 mm 1 mps 683 mmHg 70%
    01:00 +18°C° 0 mm 1 mps 683 mmHg 70%
    02:00 +18°C° 0 mm 1 mps 683 mmHg 69%
    03:00 +18°C° 0 mm 1 mps 683 mmHg 68%
    04:00 +16°C° 0 mm 1 mps 683 mmHg 68%
    05:00 +16°C° 0 mm 1 mps 683 mmHg 68%
    06:00 +16°C° 0 mm 1 mps 683 mmHg 68%
    07:00 +19°C° 0 mm 1 mps 683 mmHg 62%
    08:00 +22°C° 0 mm 1 mps 684 mmHg 56%
    09:00 +24°C° 0 mm 1 mps 684 mmHg 50%
    10:00 +25°C° 0 mm 2 mps 684 mmHg 46%
    11:00 +26°C° 0 mm 2 mps 684 mmHg 42%
    12:00 +28°C° 0 mm 3 mps 684 mmHg 38%
    13:00 +28°C° 0 mm 3 mps 684 mmHg 38%
    14:00 +28°C° 0 mm 3 mps 683 mmHg 38%
    15:00 +28°C° 0 mm 3 mps 683 mmHg 38%
    16:00 +26°C° 0 mm 2 mps 682 mmHg 47%
    17:00 +24°C° 0 mm 2 mps 682 mmHg 55%
    18:00 +22°C° 0 mm 1 mps 682 mmHg 63%
    19:00 +21°C° 0 mm 1 mps 682 mmHg 63%
    20:00 +21°C° 0 mm 1 mps 682 mmHg 62%
    21:00 +20°C° 0 mm 1 mps 683 mmHg 62%
    22:00 +20°C° 0 mm 1 mps 683 mmHg 62%
    23:00 +20°C° 0 mm 1 mps 683 mmHg 61%

    28 September, Saturday

    Time Temperature Precipitation Wind Pressure Humidity
    00:00 +20°C° 0 mm 1 mps 683 mmHg 60%
    01:00 +19°C° 0 mm 1 mps 683 mmHg 60%
    02:00 +19°C° 0 mm 1 mps 682 mmHg 59%
    03:00 +19°C° 0 mm 1 mps 682 mmHg 58%
    04:00 +19°C° 0 mm 1 mps 682 mmHg 57%
    05:00 +19°C° 0 mm 1 mps 682 mmHg 56%
    06:00 +18°C° 0 mm 2 mps 682 mmHg 55%
    07:00 +20°C° 0 mm 2 mps 682 mmHg 48%
    08:00 +24°C° 0 mm 2 mps 682 mmHg 41%
    09:00 +26°C° 0 mm 2 mps 683 mmHg 34%
    10:00 +27°C° 0 mm 3 mps 683 mmHg 31%
    11:00 +29°C° 0 mm 4 mps 683 mmHg 29%
    12:00 +30°C° 0 mm 4 mps 683 mmHg 26%
    13:00 +29°C° 0 mm 5 mps 683 mmHg 28%
    14:00 +29°C° 0 mm 6 mps 682 mmHg 31%
    15:00 +28°C° 0 mm 6 mps 682 mmHg 34%
    16:00 +26°C° 0 mm 5 mps 681 mmHg 45%
    17:00 +22°C° 0 mm 4 mps 681 mmHg 56%
    18:00 +19°C° 0 mm 2 mps 681 mmHg 67%
    19:00 +18°C° 0 mm 2 mps 682 mmHg 68%
    20:00 +19°C° 0 mm 1 mps 682 mmHg 70%
    21:00 +18°C° 0 mm 1 mps 683 mmHg 71%
    22:00 +18°C° 0 mm 1 mps 683 mmHg 72%
    23:00 +16°C° 0 mm 1 mps 683 mmHg 73%
    Show more